Weather Service Report


662 
ASUS41 KBOX 020510
RWRBOX

REGIONAL WEATHER ROUNDUP
NATIONAL WEATHER SERVICE TAUNTON MA
100 AM EDT THU JUL 02 2015

NOTE:  "FAIR" INDICATES FEW OR NO CLOUDS BELOW 12,000 FEET WITH NO 
SIGNIFICANT WEATHER AND/OR OBSTRUCTIONS TO VISIBILITY.  THE FOLLOWING 
OBSERVATION LOCATIONS DO NOT REPORT PRESENT WEATHER...PROVINCETOWN...
SMITHFIELD...BLOCK ISLAND...KEENE...AND OXFORD.

MAZALL-020600-
EASTERN MASSACHUSETTS
  
CITY           SKY/WX    TMP DP  RH WIND       PRES   REMARKS
BOSTON         MOCLDY    68  60  75 SW13      29.81S                  
BEVERLY        MOCLDY    68  57  68 W12       29.79R                  
LAWRENCE       PTCLDY    66  59  78 W15       29.81R                  
BEDFORD        MOCLDY    65  59  81 W8        29.81R                  
BLUE HILL        N/A     65  58  78 W15G25    29.83R                  
NORWOOD        MOCLDY    68  58  70 W7        29.83R                  
MARSHFIELD     NOT AVBL                                               
PLYMOUTH       PTCLDY    68  64  87 W8        29.83R                  
TAUNTON        PTCLDY    69  61  75 W3        29.83R                  
NEW BEDFORD    PTCLDY    66  64  93 W3        29.83R                  
$$

MAZALL-020600-
CAPE COD AND THE ISLANDS
  
CITY           SKY/WX    TMP DP  RH WIND       PRES   REMARKS
FALMOUTH       PTCLDY    66  64  94 SW7       29.84R                  
HYANNIS        PTCLDY    68  65  90 W6        29.82R                  
CHATHAM        MOCLDY    67  66  97 SW6       29.83S                  
PROVINCETOWN   PTCLDY    64   9  11 W9        29.82S                  
NANTUCKET      MOCLDY    67  65  93 SW14      29.84S FOG              
MARTHAS VNYRD  PTCLDY    68  64  87 W7        29.84R                  
$$
 
MAZALL-020600-
CENTRAL AND WESTERN MASSACHUSETTS
  
CITY           SKY/WX    TMP DP  RH WIND       PRES   REMARKS
WORCESTER      PTCLDY    63  56  78 W8        29.86S                  
FITCHBURG      CLEAR     65  58  78 NW7       29.83S                  
ORANGE         CLEAR     59  58  96 CALM      29.84S                  
SPRINGFIELD    CLEAR     66  57  72 W3        29.85R                  
WESTFIELD      CLEAR     62  57  83 S6        29.85R                  
NORTH ADAMS    CLOUDY    64  56  75 W6        29.87S                  
PITTSFIELD     PTCLDY    59  56  89 W6        29.87S                  
$$
 
RIZALL-020600-
RHODE ISLAND
  
CITY           SKY/WX    TMP DP  RH WIND       PRES   REMARKS
PROVIDENCE     PTCLDY    70  60  70 W8        29.85R                  
NEWPORT        PTCLDY    68  63  84 W5        29.85R                  
BLOCK ISLAND   PTCLDY    68  63  83 W8        29.86R                  
SMITHFIELD     MOCLDY    66  54  63 W5        29.85S                  
WESTERLY       PTCLDY    69  63  81 CALM      29.86R                  
$$
 
CTZALL-020600-
CONNECTICUT
  
CITY           SKY/WX    TMP DP  RH WIND       PRES   REMARKS
BRADLEY INTL   PTCLDY    66  57  72 W5        29.85R                  
HARTFORD       PTCLDY    66  60  81 SE7       29.86R                  
BRIDGEPORT     MOCLDY    74  61  63 W5        29.87R                  
DANBURY        CLEAR     63  58  83 SW3       29.90R                  
GROTON         MOCLDY    69  62  78 N5        29.85R                  
NEW HAVEN      PTCLDY    71  59  65 N3        29.86R                  
CHESTER        NOT AVBL                                               
MERIDEN        PTCLDY    65  60  84 CALM      29.87R                  
WILLIMANTIC    PTCLDY    66  60  81 W3        29.86S                  
OXFORD         PTCLDY    64  55  72 CALM      29.90S                  
$$

MEZ002-015-021-024-NHZ003-005-008-011-012-014-VTZ005-008-020600-
NORTHERN NEW ENGLAND
  
CITY           SKY/WX    TMP DP  RH WIND       PRES   REMARKS
PORTLAND ME    PTCLDY    65  62  90 SW8       29.72S                  
BANGOR ME      FOG       60  60 100 SW5       29.70S VSB 1/4          
CONCORD NH     CLEAR     63  58  83 VRB3      29.78R                  
MANCHESTER NH  PTCLDY    63  59  87 SW7       29.78R                  
NASHUA NH      CLEAR     64  60  87 CALM      29.81S                  
PORTSMOUTH NH  PTCLDY    64  60  89 W8        29.75R                  
JAFFREY NH     PTCLDY    58  57  97 CALM      29.85R                  
KEENE NH       CLEAR     59  54  82 S6        29.83S                  
BURLINGTON VT  CLOUDY    66  54  65 NW10      29.78R                  
MT. WASHINGTON FOG       43  43 100 W61G68      N/A  VSB 0   WCI  29  
$$

NYZ052-076-020600-
EASTERN NEW YORK
  
CITY           SKY/WX    TMP DP  RH WIND       PRES   REMARKS
ALBANY         PTCLDY    66  56  70 W8        29.86R                  
NEW YORK CITY  PTCLDY    76  59  55 NW12      29.87R                  
$$
 
ANZALL-020600-
MARINE OBSERVATIONS
  
STATION/POSITION TIME  TEMP    WIND        PRES    VSBY  WAVE
                       AIR SEA DIR/SP/G                  HT/PER
                 (UTC) (F)     (DEG/KT/KT) (MB)    (MI)  (FT/S)
BOSTON BUOY      0450   65 58  250/ 12/ 14 1009.2R         2/ 7
BUZZARDS BAY     0400          250/ 15/ 16 1010.7R
NANTUCKET SOUND  0450   68 68  240/ 16/ 19 1009.6R         2/ 4
MASS BAY-STELLWA 0404   63 59  220/ 10/ 12 1007.6R  1 7/8  2/ 5
ISLE OF SHOALS   0500   65     240/ 19/ 21 1007.2R
S OF BLOCK IS    0408      63                N/A           6/ 8
$$

......................KEY.........................
  SKY/WX - SKY CONDITION/PRESENT WEATHER
  TMP    - TEMPERATURE IN FAHRENHEIT
  DWPT   - DEWPOINT IN FAHRENHEIT
  RH     - RELATIVE HUMIDITY IN PERCENT
  WIND   - DIRECTION AND SPEED IN MPH
  PRES   - MEAN SEA LEVEL PRESSURE IN INCHES OF HG
  WCI    - WIND CHILL INDEX
  VSB    - VISIBILITY IN MILES
  HX     - HEAT INDEX
  TC     - TEMPERATURE IN CELSIUS
  VRB    - VARIABLE WIND DIRECTION
  N/A    - NOT AVAILABLE

Return to Home page


Western Regional Climate Center, wrcc@dri.edu